Regional Weather Roundup
Issued by NWS Midland/Odessa, TX

Home | Current Version | Previous Version | Text Only | Print | Product List | Glossary On
Versions: 1 2 3 4 5 6 7 8 9 10 11 12 13 14 15 16 17 18 19 20 21 22 23 24 25 26 27 28 29 30 31 32 33 34 35 36 37 38 39 40 41 42 43 44 45 46 47 48 49 50
000
ASUS44 KMAF 021010
RWRMAF
MIDLAND AREA WEATHER ROUNDUP
NATIONAL WEATHER SERVICE MIDLAND TX
500 AM CDT WED SEP 02 2015

...IN SOUTHWEST TEXAS AND SOUTHEAST NEW MEXICO...

CITY           SKY/WX    TMP DP  RH WIND       PRES   REMARKS
ALPINE         PTCLDY    62  53  72 SW9       30.19S
ANDREWS        FAIR      70  54  57 SW7       30.08S
ARTESIA        PTCLDY    70  52  52 SE8       30.09S
BIG SPRING     CLEAR     70  55  58 SE9       30.08R
CARLSBAD       CLEAR     70  50  49 S8        30.06R
DRYDEN           N/A     75  67  76 S8        30.04R
FORT STOCKTON  CLEAR     71  56  58 SE13      30.06R
GUAD PASS      PTCLDY    71  50  47 E6        30.22R
HOBBS            N/A     64  52  63 CALM      30.11S
MARFA          PTCLDY    55  48  76 N3        30.18S
MIDLAND AIRPK  CLEAR     73  54  52 CALM      30.07S
MIDLAND INTL   CLEAR     73  54  51 SW6       30.06S
ODESSA         CLEAR     74  54  49 S9        30.07S
PECOS          CLEAR     69  53  55 E6        30.03S
PRESIDIO       NOT AVBL
SEMINOLE       CLEAR     65  51  60 W3        30.10R
SNYDER         CLEAR     72  61  68 SE12      30.06S
WINK           CLEAR     69  53  56 E6        30.04R
$$
...OTHER STATIONS IN TEXAS...

CITY           SKY/WX    TMP DP  RH WIND       PRES   REMARKS
ABILENE        CLEAR     73  64  73 S9        30.04S
AMARILLO       CLOUDY    72  54  53 S16       30.08S
AUSTIN         PTCLDY    66  65  96 CALM      30.03F
BROWNSVILLE    CLEAR     76  75  97 NE5       29.94F
CORPUS CHRISTI PTCLDY    75  73  93 CALM      29.97F
DALLAS FTW     CLEAR     75  67  76 S9        30.03S
DEL RIO        MOCLDY    77  69  76 SE7       30.00F
EL PASO        MOCLDY    77  48  35 SE3       30.06S
HOUSTON INT    MOCLDY    75  73  93 NE7       30.04R
LUBBOCK        PTCLDY    64  56  75 CALM      30.08S
SAN ANGELO     CLEAR     74  66  76 VRB5      30.04S
SAN ANTONIO    MOCLDY    75  69  81 SE5       30.04F
WACO           PTCLDY    73  68  84 S8        30.04S
WICHITA FALLS  NOT AVBL
$$
...OTHER LOCATIONS IN NEW MEXICO...

CITY           SKY/WX    TMP DP  RH WIND       PRES   REMARKS
ALAMAGORDO     NOT AVBL
ALBUQUERQUE    PTCLDY    68  44  42 SE7       30.19S
CANNON AFB     PTCLDY    66  52  60 SW6       30.13F
CLOVIS         PTCLDY    66  50  55 SW10      30.14S
HOLLOMAN AFB   MOCLDY    69  44  41 N7        30.08R
ROSWELL        MOCLDY    70  51  51 SE3       30.09S
RUIDOSO        NOT AVBL
SANTA FE       CLOUDY    60  44  55 N6        30.24S
TRUTH OR CONSE FAIR      69  48  47 NW7       30.14S
TUCUMCARI      PTCLDY    74  50  42 SW10      30.08R
$$



USA.gov is the U.S. government's official web portal to all federal, state and local government web resources and services.